Regional Weather Roundup
Issued by NWS Sioux Falls, SD

Home | Current Version | Previous Version | Graphics & Text | Print | Product List | Glossary On
Versions: 1 2 3 4 5 6 7 8 9 10 11 12 13 14 15 16 17 18 19 20 21 22 23 24 25 26 27 28 29 30 31 32 33 34 35 36 37 38 39 40 41 42 43 44 45 46 47 48 49 50
000
ASUS43 KFSD 181702
RWRFSD

WEATHER ROUNDUP FOR SE SOUTH DAKOTA/SW MINNESOTA/NW IOWA
NATIONAL WEATHER SERVICE SIOUX FALLS SD
1200 PM CDT FRI APR 18 2014

NOTE: "FAIR" INDICATES FEW OR NO CLOUDS BELOW 12,000 FEET WITH NO
SIGNIFICANT WEATHER AND OR OBSTRUCTIONS TO VISIBILITY.


SDZ038>040-050-052>070-181800-
SOUTHEAST SOUTH DAKOTA

CITY           SKY/WX    TMP DP  RH WIND       PRES   REMARKS
CHAMBERLAIN      N/A     64  38  38 S25G36    29.93F
HURON          SUNNY     58  37  45 S28G37    30.00F
MADISON        FAIR      52  34  50 SE25G32   30.11F
MITCHELL       SUNNY     60  38  43 SE28G35   30.03F
SIOUX FALLS    MOSUNNY   56  33  42 SE22G29   30.15F
WINNER         FAIR      66  37  34 S15G31    29.90F
YANKTON        SUNNY     61  36  39 S24G36    30.12F
$$

MNZ071-072-080-081-089-090-097-098-181800-
SOUTHWEST MINNESOTA

CITY           SKY/WX    TMP DP  RH WIND       PRES   REMARKS
FAIRMONT       CLOUDY    43  30  61 SE13      30.33F
JACKSON        CLOUDY    46  32  57 SE16      30.28F
LUVERNE        MOSUNNY   54  34  47 SE21G26   30.21F
MARSHALL       CLOUDY    45  32  61 SE21      30.23F
MONTEVIDEO     CLOUDY    37  32  81 S18       30.28F
PIPESTONE      MOSUNNY   50  36  57 S20G25    30.18F
REDWOOD FALLS  CLOUDY    42  32  67 SE20G25   30.29F
TRACY          CLOUDY    46  37  69 SE17      30.26S
WINDOM         CLOUDY    46  34  61 SE16      30.28F
WORTHINGTON    CLOUDY    48  30  49 SE17      30.26F
$$

IAZ001>003-012>014-020>022-031-032-NEZ013-014-SDZ071-181800-
NORTHWEST IOWA

CITY           SKY/WX    TMP DP  RH WIND       PRES   REMARKS
DENISON        SUNNY     57  32  38 S14G22    30.26S
ESTHERVILLE    PTSUNNY   48  34  58 SE18      30.28F
SIOUX CITY     SUNNY     60  33  36 S23G30    30.21F HAZE
SPENCER        PTSUNNY   52  34  50 SE17      30.26F
STORM LAKE     MOSUNNY   54  32  43 SE18      30.27F
$$

ABBREVIATIONS USED IN REMARKS
   TC - TEMPERATURE IN CELSIUS
  WCI - WIND CHILL INDEX
   HX - HEAT INDEX
  VSB - VISIBILITY




USA.gov is the U.S. government's official web portal to all federal, state and local government web resources and services.